CAPE
0 0 0 0 0 0 0 0 0 0 0 0 0 0 0 0 0 0 0 0 0 0 0 1 2 9 1 0 3 0 0 0 0 0 0 0 0 0 0 0 0 16 6
0 0 0 0 0 0 0 0 0 0 0 0 0 0 0 0 0 0 0 0 0 2 7 1 0 0 0 0 0 0 2 1 8 3 0 0 0 0 0 0 0 0 0
0 0 0 0 0 0 0 0 0 0 0 0 0 0 0 0 0 0 0 1 0 0 0 0 0 0 0 0 0 0 0 6 4 5 7 4 2 1 0 0 0 0 0
0 0 0 0 0 0 0 0 0 0 0 0 0 0 0 0 0 0 0 0 0 0 0 0 0 0 0 0 2 4 15 13 12 14 13 9 3 0 0 0 0 0 0
0 0 0 0 0 0 0 0 0 0 0 0 0 0 0 0 0 0 0 0 0 0 0 0 0 0 3 6 7 19 26 23 26 18 10 4 4 3 0 0 0 0 0
0 0 0 0 0 0 0 0 0 0 0 0 0 0 0 3 0 0 0 0 0 0 0 0 0 0 0 0 0 0 8 25 28 26 17 14 15 14 0 0 0 1 1
0 0 0 0 0 0 0 0 0 0 0 0 0 0 1 0 0 0 0 0 0 0 0 1 0 0 0 0 0 1 0 3 18 24 25 24 30 29 4 0 0 1 5
0 0 0 0 0 0 0 0 0 0 0 0 0 0 0 0 0 0 0 0 0 0 0 0 0 0 0 0 3 5 3 1 4 6 10 16 21 11 3 0 0 0 0
0 0 0 0 0 0 0 0 0 0 0 0 0 0 0 0 0 0 0 0 0 0 0 0 0 0 0 0 0 1 1 1 0 0 0 0 0 13 8 3 3 9 0
0 0 0 0 0 0 0 0 0 0 0 0 0 0 0 0 0 0 0 0 0 0 0 0 0 0 0 0 0 0 1 0 1 0 0 0 0 0 0 0 0 1 9
0 0 0 0 0 0 0 0 0 0 0 0 0 0 0 0 0 0 0 0 0 0 0 0 0 0 0 0 0 1 1 1 1 1 1 2 4 1 1 6 0 0 3
0 0 0 0 0 0 0 0 0 0 1 0 0 0 0 0 0 0 0 0 0 0 0 0 0 0 0 0 0 0 1 2 5 5 5 4 4 3 0 3 2 0 0
1 1 0 0 0 0 0 0 1 1 1 1 1 2 1 0 0 0 0 0 0 0 0 0 0 0 0 0 0 0 0 0 0 0 0 1 2 1 1 59 11 0 0
1 1 1 1 1 0 0 1 1 3 3 3 2 2 0 0 1 0 0 0 0 0 1 0 0 0 0 0 0 0 0 1 4 3 1 2 3 2 2 0 75 84 8
2 2 2 1 2 1 1 1 1 1 1 1 0 0 2 3 2 1 0 0 0 0 0 0 0 0 0 0 8 2 13 7 2 0 1 2 2 21 54 148 171 191 69
2 2 2 1 1 1 2 3 0 0 0 0 0 0 2 3 2 0 0 0 0 0 0 0 0 8 1 0 0 14 9 0 0 1 0 0 0 0 0 48 202 106 0
1 2 3 2 1 3 4 4 3 0 0 0 0 0 1 2 0 0 0 0 0 0 0 3 15 25 3 3 1 0 11 22 40 1 0 0 16 8 1 122 19 2 2
1 2 2 1 2 2 3 4 4 6 4 2 0 0 4 0 2 2 0 0 3 2 5 18 23 35 16 17 27 23 38 61 57 9 7 1 32 72 62 43 10 2 3
1 2 1 1 1 1 1 3 4 5 6 4 4 0 2 1 2 0 1 2 2 2 3 1 15 38 27 29 2 30 27 34 51 30 5 0 11 2 5 11 2 1 0
0 0 0 1 1 1 1 3 4 5 5 5 3 4 3 5 4 4 5 5 4 2 3 1 9 0 1 0 0 0 0 5 70 33 8 21 24 6 0 2 0 0 0
0 0 0 0 1 1 1 1 2 3 4 4 4 2 0 4 8 7 6 4 6 3 2 1 0 0 0 0 0 0 0 0 0 59 105 87 11 4 20 0 0 1 0
0 0 0 0 0 0 1 0 1 1 2 2 2 2 1 2 5 7 6 7 4 2 1 3 0 0 1 1 0 0 0 0 0 0 77 98 107 45 1 1 3 4 4
0 0 0 0 0 0 0 0 0 0 1 0 1 2 2 2 2 5 6 4 4 3 1 2 1 0 0 0 0 0 0 0 0 0 3 71 110 38 8 0 1 2 0
0 0 0 0 0 0 0 0 0 0 0 0 0 0 1 1 1 2 3 4 3 2 1 1 2 0 0 0 0 0 0 0 0 0 0 21 27 31 14 2 2 1 0
0 0 0 0 0 0 0 0 0 1 0 0 0 0 0 0 1 1 1 2 3 2 0 0 0 0 0 0 0 0 0 0 0 0 0 0 0 0 1 0 1 0 0
0 0 0 0 0 0 0 0 0 0 0 0 0 1 0 0 0 0 0 0 1 0 0 0 0 0 0 0 0 0 0 0 0 0 0 0 0 0 0 0 0 0 0
CIN
0 0 0 0 0 0 0 0 0 0 0 0 0 0 0 0 0 0 0 0 0 0 0 -7 -8 -8 -4 0 -13 -9 0 0 0 0 -1 0 0 0 0 0 -17 -37 -23
0 0 0 0 0 0 0 0 0 0 0 0 0 0 0 0 0 0 0 0 -2 -5 -8 -11 0 0 0 0 0 0 -15 -7 -11 -5 0 0 0 0 0 0 -2 0 0
0 0 0 0 0 0 0 0 0 0 0 0 0 0 0 0 0 0 0 -8 0 0 0 0 0 0 0 0 0 0 0 -1 -3 -7 -2 -5 -2 -1 0 0 -3 0 0
0 0 0 0 0 0 0 0 0 0 0 0 0 0 0 0 -2 0 0 0 0 0 0 0 0 0 0 0 -5 -3 -2 -3 -2 -1 -1 -3 -3 0 0 0 0 0 0
0 0 0 0 0 0 0 0 0 0 0 0 0 0 0 0 -3 0 0 0 0 0 0 0 0 0 -9 -12 -1 0 -1 -1 0 -2 -6 -8 -2 -2 0 0 0 0 0
0 0 0 0 0 0 0 0 0 0 0 0 0 0 0 -5 -9 0 0 0 0 0 0 0 0 0 0 0 0 0 -3 -1 0 0 0 0 0 -2 0 0 0 0 -1
0 0 0 0 0 0 0 0 0 0 0 0 0 0 -3 0 -1 -2 -1 0 0 0 -6 -9 0 0 0 0 0 -2 0 -4 -4 -3 0 0 0 -2 -10 0 0 0 0
0 0 0 0 0 0 0 0 0 0 0 0 0 0 0 0 -2 -3 0 0 0 0 0 0 0 0 -1 -2 -1 0 0 -1 -1 -6 -15 -11 -1 -10 -18 0 0 0 0
0 0 0 0 0 0 0 0 0 0 0 0 0 0 -1 0 0 -3 0 0 0 0 0 0 0 0 0 0 0 0 0 0 0 0 0 0 -26 -15 -7 0 0 0 0
0 0 0 0 0 0 0 0 0 0 0 0 -1 0 0 0 -2 -2 0 0 0 0 0 0 0 0 0 0 0 0 0 0 0 0 0 0 0 0 0 0 0 0 0
0 0 -1 0 0 0 0 0 0 0 0 0 0 0 0 -3 0 0 0 0 0 0 0 0 0 0 0 0 0 0 0 0 0 0 0 0 0 0 0 -6 0 0 0
0 0 0 0 0 0 0 0 0 0 0 0 0 0 0 0 -1 0 0 0 0 0 0 0 0 0 0 0 0 0 0 0 0 0 0 0 0 0 0 -16 0 0 -1
0 0 0 0 0 0 0 0 0 0 0 0 0 0 0 0 0 0 0 0 0 0 0 0 0 0 0 0 0 0 0 0 0 0 0 0 0 0 -10 -6 -31 0 0
0 0 0 0 0 0 0 0 0 0 0 0 0 0 0 0 0 0 0 0 0 0 0 0 0 0 0 0 0 -12 0 -17 -1 0 0 0 0 0 0 -1 -9 -5 -1
0 0 0 0 0 0 0 0 0 0 0 0 0 0 0 0 0 0 0 0 0 0 0 0 0 0 0 0 -50 -29 -60 -21 -20 0 0 -52 0 -32 -19 -5 -9 -3 -3
0 0 0 0 0 0 0 0 0 0 0 0 0 0 0 0 0 0 0 0 0 0 0 0 0 -37 -22 0 0 -27 -37 -17 0 -16 0 0 -8 0 0 -63 -2 -6 0
0 0 0 0 0 0 0 0 0 0 0 0 0 0 0 0 0 0 0 0 0 0 0 -69 -76 -24 -49 -49 -40 -1 -12 -16 -21 -3 0 0 -3 -80 -16 0 -33 -3 0
0 0 0 0 0 0 0 0 0 0 0 0 0 0 0 0 0 0 0 -26 -78 -24 -52 -65 -53 -42 -73 -21 -29 -38 -7 -30 -24 -23 -4 0 -28 -86 -64 -25 -53 0 0
0 0 0 0 0 0 0 0 0 0 0 0 0 0 0 0 0 0 0 0 0 0 0 -9 -29 -7 -27 -27 -14 -23 -43 -36 -33 -20 -17 0 -8 0 -18 -27 -1 0 0
0 0 0 0 0 0 0 0 0 0 0 0 0 0 0 0 0 0 0 0 0 0 0 -4 -18 0 -15 0 0 0 0 -25 -42 -30 -9 -27 -27 -17 0 -58 0 0 -7
0 0 0 0 0 0 0 0 0 0 0 0 0 0 0 0 0 0 0 0 0 0 0 0 0 0 0 0 0 0 0 0 0 -37 -25 -37 -33 -41 -26 0 0 0 0
0 0 0 0 0 0 0 0 0 0 0 0 0 0 0 0 0 0 0 0 0 0 0 0 0 0 0 0 0 0 0 0 0 0 -48 -21 -14 -37 -20 0 0 0 0
0 0 0 0 0 0 0 0 0 0 0 0 0 0 0 0 0 0 0 0 0 0 0 0 0 0 0 0 0 0 0 0 0 0 -49 -39 -19 -63 -120 -66 0 0 0
0 0 0 0 0 0 0 0 0 0 0 0 0 0 0 0 0 0 0 0 0 0 0 0 0 0 0 0 0 0 0 0 0 0 0 -40 -40 -33 -60 0 0 0 0
0 0 0 0 0 0 0 0 0 0 0 0 0 0 0 0 0 0 0 0 0 0 0 0 0 0 0 0 0 0 0 0 0 0 0 0 0 0 -39 0 0 0 0
0 0 0 0 0 -1 -2 0 0 0 0 0 0 0 0 0 0 0 0 0 0 0 0 0 0 0 0 0 0 0 0 0 0 0 0 0 0 0 0 0 0 0 0
Wind_Speed
13 14 15 17 19 20 21 23 25 27 29 30 31 32 34 36 37 39 39 37 39 38 36 36 37 36 37 36 35 35 36 37 48 46 43 44 45 45 46 46 44 40 35
14 17 18 20 22 25 26 27 29 30 33 35 37 38 40 40 40 41 40 38 38 39 38 35 36 37 38 38 39 40 40 39 41 52 47 46 46 46 46 45 45 43 39
20 21 23 25 26 28 31 32 33 36 36 36 38 43 45 45 43 39 37 36 38 36 36 38 39 40 42 42 43 44 42 42 43 48 51 45 44 42 45 44 44 43 42
23 25 26 28 30 32 33 34 35 35 36 38 40 41 40 37 36 37 37 40 40 40 41 42 43 44 44 45 46 42 42 44 45 47 49 50 47 45 44 45 44 40 39
28 29 30 31 33 34 36 38 38 38 38 39 40 40 40 39 37 40 43 42 41 43 43 43 41 39 39 43 42 41 42 44 45 47 50 49 48 46 45 43 44 40 39
30 31 33 33 35 37 38 39 39 41 42 43 43 41 40 37 37 40 38 39 43 44 44 41 38 40 40 39 38 39 39 42 44 45 47 49 48 45 43 43 42 41 38
32 33 34 36 37 38 39 40 42 43 42 42 41 39 37 36 39 38 38 42 43 41 39 38 39 37 36 37 37 35 36 35 35 41 47 47 48 44 44 45 43 39 36
33 35 36 38 39 39 39 40 40 39 39 40 38 37 37 36 35 37 40 43 39 35 34 35 35 34 31 31 31 30 30 30 28 29 32 37 43 45 45 45 45 41 41
34 36 37 38 38 38 39 40 39 39 39 38 35 34 35 35 34 38 38 38 35 35 34 32 28 29 23 26 26 26 26 25 19 18 19 26 36 42 43 41 44 39 40
36 36 37 37 37 38 39 39 37 36 35 33 33 33 32 34 34 35 36 34 36 34 32 30 24 20 20 21 21 23 23 17 15 12 16 19 31 39 46 45 43 45 39
35 35 36 36 36 36 36 36 36 34 33 32 33 31 32 32 33 35 35 34 29 33 31 27 21 15 15 13 14 13 14 14 12 11 11 9 5 32 35 37 40 41 40
34 35 35 34 34 33 34 34 33 32 32 33 35 32 30 31 32 31 31 23 30 26 20 9 8 10 14 15 14 9 8 11 9 9 10 14 22 31 35 34 34 36 37
34 33 33 33 32 32 32 32 31 31 32 33 31 31 33 31 28 21 6 2 21 22 6 11 15 13 13 11 10 7 8 6 5 6 11 17 20 32 32 28 28 34 36
35 32 32 32 31 30 29 28 29 31 32 31 30 31 28 22 7 4 8 13 16 14 14 8 8 12 10 8 8 5 1 7 11 16 6 16 20 28 33 34 31 28 27
35 31 29 28 27 26 26 28 28 30 25 25 26 23 1 9 11 11 11 10 10 10 13 6 11 7 10 12 10 8 7 7 2 9 10 10 13 18 4 27 30 30 27
33 28 27 26 26 24 22 22 24 28 26 25 21 21 16 10 9 9 6 5 8 9 7 7 11 7 8 10 14 15 10 6 8 13 10 15 21 31 29 27 23 23 23
32 26 24 22 19 20 22 23 23 18 23 21 20 17 16 12 12 11 4 3 4 4 6 9 8 7 14 17 14 11 15 13 18 12 10 7 23 35 38 33 19 21 27
30 26 23 22 21 21 22 21 18 18 20 15 15 17 17 15 11 10 8 6 3 4 8 9 8 8 13 18 11 15 17 20 23 16 12 22 33 36 30 23 23 21 25
27 26 24 24 23 21 22 23 19 18 21 15 17 18 18 14 11 15 13 8 10 9 12 10 10 12 12 16 17 14 14 18 27 11 19 23 32 35 28 27 28 21 14
25 27 26 24 22 23 25 25 22 19 22 20 19 18 17 15 14 12 11 11 6 6 8 9 10 7 12 12 15 14 14 13 15 30 24 20 20 25 29 23 19 12 10
23 25 25 24 24 24 26 26 24 23 22 22 19 17 17 16 16 14 12 12 11 14 14 12 12 10 10 11 16 18 16 14 12 9 22 31 31 27 13 15 17 12 11
22 23 25 24 24 25 27 28 27 25 24 23 20 19 19 17 16 16 14 14 13 9 11 13 13 18 15 12 15 18 17 14 12 9 7 8 21 17 17 17 16 15 11
23 24 25 25 25 25 26 27 28 28 27 24 22 20 19 19 18 17 15 13 13 12 13 14 17 16 17 15 15 16 17 12 9 7 7 8 5 5 6 3 5 10 10
24 25 24 25 26 25 26 26 27 28 27 26 24 21 21 20 19 18 17 15 16 16 16 18 17 20 20 19 17 16 15 13 9 7 5 5 6 7 1 3 7 6 7
24 25 25 25 26 26 26 26 27 26 27 26 25 22 22 21 20 19 19 18 16 16 19 21 21 21 22 22 22 20 18 18 16 13 8 6 13 11 12 14 13 14 15
25 25 26 26 26 26 26 27 27 27 26 25 25 24 23 23 21 21 21 20 20 21 22 23 23 23 24 24 24 22 21 19 18 17 14 11 17 14 13 13 14 15 15
Wind_Direction
344 339 339 334 330 328 326 325 324 322 321 321 320 319 318 317 318 318 318 318 317 317 317 317 317 317 316 315 314 311 308 306 299 300 300 300 298 293 286 284 285 287 292
339 334 331 329 326 322 321 321 321 321 319 317 316 316 316 316 318 317 317 317 316 317 317 319 318 317 316 315 312 309 307 304 301 296 298 298 294 292 288 284 281 280 285
331 329 326 325 322 320 319 319 319 318 318 320 319 316 314 314 316 317 318 319 320 320 320 319 318 315 313 313 311 308 305 302 298 296 294 295 294 293 288 287 282 279 276
327 325 323 321 320 319 319 320 320 320 318 316 316 317 317 318 319 319 319 318 318 318 318 317 316 314 311 311 309 306 304 300 297 294 291 290 289 288 288 283 281 279 279
321 320 319 320 320 319 320 320 320 321 320 319 318 317 316 317 318 318 316 317 319 317 317 317 316 315 312 311 309 306 303 300 296 292 289 287 285 283 281 280 277 279 275
322 320 320 321 320 320 319 319 319 318 316 316 315 316 316 317 318 318 319 320 319 319 320 320 320 318 315 313 310 305 302 301 297 292 289 284 281 280 277 275 272 274 273
322 322 321 320 318 319 319 318 317 317 317 317 316 316 318 318 317 318 319 320 321 322 323 322 321 320 318 316 313 310 306 302 296 294 289 284 279 275 272 268 266 268 270
323 321 320 319 318 318 318 319 319 320 320 320 318 319 319 320 320 320 319 321 324 326 326 325 324 324 323 322 319 316 313 308 303 298 293 291 282 274 267 262 259 261 263
323 321 320 319 318 319 319 319 320 319 320 322 324 322 322 321 323 322 324 326 328 328 328 329 329 329 326 331 329 325 322 317 313 294 285 293 287 273 262 259 251 253 252
323 322 321 321 319 319 319 319 321 322 322 324 324 324 326 326 327 329 329 331 329 332 334 335 336 328 325 328 326 325 321 309 317 306 311 303 291 272 255 249 247 242 245
326 324 322 321 320 322 322 322 322 322 321 323 325 329 330 332 335 333 332 333 340 338 342 347 352 347 346 322 320 312 287 280 282 271 260 239 248 222 244 245 242 238 238
329 326 325 325 325 326 325 325 324 321 317 322 323 331 338 340 339 339 340 346 340 352 278 359 341 317 303 298 340 338 282 261 266 250 226 203 202 201 223 238 233 232 237
333 330 328 329 328 326 327 322 317 312 320 323 335 340 340 343 351 1 348 276 269 277 276 281 292 310 308 313 343 270 271 252 247 224 203 193 183 204 214 235 237 232 235
340 335 332 330 325 326 321 307 303 310 320 335 344 344 350 3 33 262 249 263 269 265 281 296 324 310 351 360 350 339 301 246 265 261 133 174 170 181 196 215 222 226 230
342 337 330 331 319 310 305 308 298 314 351 355 358 10 66 266 265 265 262 263 257 258 285 337 316 341 22 16 47 38 61 99 107 244 109 60 142 152 197 221 217 217 218
340 336 337 329 326 316 303 300 312 335 340 359 341 42 295 265 265 259 238 224 256 274 52 335 317 347 32 35 52 53 56 76 87 72 169 205 185 176 195 208 212 206 203
352 341 331 324 315 316 323 326 326 317 358 338 329 316 314 304 295 292 262 156 135 87 328 332 333 356 76 57 56 42 54 76 90 124 124 156 165 172 171 180 191 187 187
355 342 336 331 328 328 330 330 326 327 332 311 312 319 318 319 305 313 318 139 64 38 344 343 1 20 94 66 60 50 62 80 97 119 112 115 128 141 159 169 175 176 184
354 349 342 341 339 333 336 344 334 330 340 319 318 323 324 317 308 328 335 331 330 333 336 349 11 49 58 75 67 55 65 75 91 104 117 116 124 133 149 159 164 168 165
4 358 354 348 339 341 350 352 345 334 342 337 335 330 320 320 327 318 320 321 326 343 360 356 8 34 42 25 23 47 52 58 87 105 120 118 133 138 148 149 161 166 147
12 359 356 352 349 349 353 354 347 343 341 343 336 330 329 329 326 320 312 321 326 331 333 343 357 13 19 27 30 27 43 57 41 88 124 123 126 137 138 150 152 99 152
351 2 356 351 352 353 358 0 358 352 350 345 335 333 336 334 329 326 323 331 325 338 349 350 355 357 358 13 9 14 20 46 49 62 80 107 134 141 152 158 161 168 173
356 351 356 352 350 350 354 0 1 357 355 351 341 333 331 332 331 327 316 309 329 329 329 338 346 350 353 354 360 4 12 21 40 62 87 42 67 129 154 112 155 187 193
3 359 357 357 354 353 350 354 353 358 355 354 348 337 333 328 327 325 322 312 302 322 333 338 339 347 347 348 346 348 352 357 3 16 35 25 28 31 142 195 194 208 219
360 1 359 359 358 355 351 353 353 353 350 350 348 337 333 329 325 323 321 312 307 310 319 328 331 335 339 339 339 338 339 345 349 349 349 356 11 9 19 30 31 31 49
1 3 1 1 359 359 355 352 353 352 349 344 344 338 332 331 325 324 322 317 311 306 308 319 322 324 329 331 332 333 333 334 337 340 340 335 4 1 0 7 14 21 27